When you browse on this site, cookies collect data to enhance your experience and personalize the content and advertising you see.
Visit our Privacy Policy to learn more. By continuing to use the site, you agree to this use of cookies and data.

Hourly Weather Ganja

Today, 14 July, Tuesday

Time Temperature Precipitation Wind Pressure Humidity
00:00 +25°C° 0.2 mm 3 mps 719 mmHg 63%
01:00 +25°C° 0.1 mm 4 mps 719 mmHg 64%
02:00 +25°C° 0.1 mm 5 mps 719 mmHg 64%
03:00 +23°C° 0 mm 5 mps 719 mmHg 66%
04:00 +25°C° 0 mm 5 mps 719 mmHg 66%
05:00 +25°C° 0 mm 5 mps 720 mmHg 66%
06:00 +25°C° 0 mm 5 mps 720 mmHg 65%
07:00 +26°C° 0.1 mm 5 mps 720 mmHg 61%
08:00 +28°C° 0.1 mm 5 mps 720 mmHg 56%
09:00 +29°C° 0 mm 5 mps 721 mmHg 51%
10:00 +30°C° 0.3 mm 5 mps 721 mmHg 49%
11:00 +32°C° 0.3 mm 5 mps 721 mmHg 46%
12:00 +33°C° 0.3 mm 5 mps 721 mmHg 43%
13:00 +33°C° 0.3 mm 4 mps 721 mmHg 42%
14:00 +34°C° 0.3 mm 3 mps 720 mmHg 41%
15:00 +34°C° 0.3 mm 2 mps 720 mmHg 40%
16:00 +34°C° 0.4 mm 2 mps 720 mmHg 41%
17:00 +34°C° 0.4 mm 2 mps 721 mmHg 42%
18:00 +32°C° 0.4 mm 2 mps 721 mmHg 43%
19:00 +31°C° 0.1 mm 2 mps 722 mmHg 46%
20:00 +29°C° 0.1 mm 3 mps 722 mmHg 49%
21:00 +28°C° 0.1 mm 3 mps 723 mmHg 52%
22:00 +27°C° 0.1 mm 3 mps 723 mmHg 56%
23:00 +26°C° 0.1 mm 2 mps 723 mmHg 61%

Tomorrow, 15 July, Wednesday

Time Temperature Precipitation Wind Pressure Humidity
00:00 +25°C° 0.1 mm 2 mps 723 mmHg 66%
01:00 +25°C° 0.1 mm 3 mps 723 mmHg 66%
02:00 +24°C° 0.1 mm 3 mps 723 mmHg 67%
03:00 +23°C° 0.1 mm 4 mps 724 mmHg 68%
04:00 +23°C° 0 mm 4 mps 724 mmHg 67%
05:00 +23°C° 0 mm 4 mps 724 mmHg 66%
06:00 +25°C° 0 mm 4 mps 724 mmHg 66%
07:00 +26°C° 0 mm 4 mps 724 mmHg 62%
08:00 +27°C° 0 mm 4 mps 724 mmHg 59%
09:00 +28°C° 0 mm 4 mps 724 mmHg 55%
10:00 +29°C° 0.1 mm 3 mps 724 mmHg 52%
11:00 +30°C° 0.1 mm 3 mps 724 mmHg 49%
12:00 +31°C° 0.1 mm 2 mps 723 mmHg 47%
13:00 +32°C° 0.2 mm 2 mps 723 mmHg 45%
14:00 +34°C° 0.2 mm 2 mps 723 mmHg 43%
15:00 +34°C° 0.2 mm 2 mps 723 mmHg 42%
16:00 +34°C° 0.2 mm 2 mps 723 mmHg 43%
17:00 +34°C° 0.2 mm 3 mps 723 mmHg 45%
18:00 +33°C° 0.2 mm 3 mps 723 mmHg 47%
19:00 +31°C° 0.3 mm 3 mps 723 mmHg 51%
20:00 +30°C° 0.3 mm 3 mps 724 mmHg 55%
21:00 +28°C° 0.3 mm 3 mps 724 mmHg 59%
22:00 +28°C° 0.1 mm 3 mps 724 mmHg 60%
23:00 +27°C° 0.1 mm 3 mps 724 mmHg 60%

Day after tomorrow, 16 July, Thursday

Time Temperature Precipitation Wind Pressure Humidity
00:00 +27°C° 0.1 mm 2 mps 724 mmHg 61%
01:00 +26°C° 0.1 mm 2 mps 724 mmHg 63%
02:00 +25°C° 0.1 mm 2 mps 724 mmHg 66%
03:00 +25°C° 0.1 mm 2 mps 723 mmHg 68%
04:00 +25°C° 0.1 mm 3 mps 723 mmHg 69%
05:00 +25°C° 0.1 mm 3 mps 723 mmHg 70%
06:00 +25°C° 0.1 mm 3 mps 723 mmHg 71%
07:00 +26°C° 0 mm 3 mps 723 mmHg 68%
08:00 +27°C° 0 mm 3 mps 723 mmHg 65%
09:00 +28°C° 0 mm 3 mps 723 mmHg 62%
10:00 +29°C° 0 mm 2 mps 723 mmHg 59%
11:00 +30°C° 0 mm 2 mps 723 mmHg 57%
12:00 +31°C° 0 mm 1 mps 722 mmHg 54%
13:00 +32°C° 0.1 mm 2 mps 722 mmHg 50%
14:00 +34°C° 0.1 mm 2 mps 722 mmHg 47%
15:00 +35°C° 0.1 mm 2 mps 722 mmHg 44%
16:00 +34°C° 0.2 mm 3 mps 722 mmHg 44%
17:00 +34°C° 0.2 mm 3 mps 722 mmHg 44%
18:00 +34°C° 0.2 mm 3 mps 722 mmHg 45%
19:00 +31°C° 0.2 mm 3 mps 722 mmHg 47%
20:00 +30°C° 0.2 mm 3 mps 722 mmHg 50%
21:00 +29°C° 0.2 mm 3 mps 722 mmHg 52%
22:00 +28°C° 0 mm 3 mps 722 mmHg 53%
23:00 +28°C° 0 mm 3 mps 722 mmHg 53%

17 July, Friday

Time Temperature Precipitation Wind Pressure Humidity
00:00 +27°C° 0 mm 4 mps 722 mmHg 54%
01:00 +27°C° 0 mm 3 mps 722 mmHg 55%
02:00 +26°C° 0 mm 3 mps 722 mmHg 57%
03:00 +26°C° 0 mm 3 mps 722 mmHg 58%
04:00 +26°C° 0 mm 3 mps 722 mmHg 58%
05:00 +26°C° 0 mm 3 mps 722 mmHg 58%
06:00 +26°C° 0 mm 2 mps 722 mmHg 59%
07:00 +28°C° 0 mm 3 mps 722 mmHg 55%
08:00 +29°C° 0 mm 3 mps 722 mmHg 51%
09:00 +30°C° 0 mm 4 mps 722 mmHg 47%
10:00 +32°C° 0 mm 4 mps 722 mmHg 44%
11:00 +33°C° 0 mm 5 mps 721 mmHg 41%
12:00 +35°C° 0 mm 6 mps 721 mmHg 38%
13:00 +35°C° 0 mm 6 mps 721 mmHg 37%
14:00 +36°C° 0 mm 5 mps 720 mmHg 36%
15:00 +36°C° 0 mm 5 mps 720 mmHg 35%
16:00 +35°C° 0.3 mm 5 mps 720 mmHg 38%
17:00 +35°C° 0.3 mm 5 mps 720 mmHg 40%
18:00 +34°C° 0.3 mm 4 mps 720 mmHg 43%
19:00 +32°C° 0.8 mm 4 mps 721 mmHg 48%
20:00 +30°C° 0.8 mm 3 mps 721 mmHg 54%
21:00 +28°C° 0.8 mm 3 mps 721 mmHg 60%
22:00 +28°C° 0.3 mm 3 mps 722 mmHg 61%
23:00 +27°C° 0.3 mm 3 mps 722 mmHg 62%

18 July, Saturday

Time Temperature Precipitation Wind Pressure Humidity
00:00 +27°C° 0.3 mm 3 mps 722 mmHg 63%
01:00 +26°C° 0 mm 2 mps 722 mmHg 65%
02:00 +26°C° 0 mm 1 mps 722 mmHg 66%
03:00 +25°C° 0 mm 1 mps 722 mmHg 67%
04:00 +26°C° 0 mm 1 mps 722 mmHg 67%
05:00 +26°C° 0 mm 1 mps 722 mmHg 66%
06:00 +26°C° 0 mm 1 mps 723 mmHg 66%
07:00 +27°C° 0 mm 1 mps 723 mmHg 62%
08:00 +28°C° 0 mm 2 mps 723 mmHg 59%
09:00 +30°C° 0 mm 2 mps 723 mmHg 55%
10:00 +31°C° 0 mm 2 mps 723 mmHg 52%
11:00 +32°C° 0 mm 2 mps 723 mmHg 48%
12:00 +34°C° 0 mm 3 mps 723 mmHg 45%
13:00 +35°C° 0 mm 3 mps 722 mmHg 42%
14:00 +36°C° 0 mm 3 mps 722 mmHg 39%
15:00 +36°C° 0 mm 4 mps 722 mmHg 37%
16:00 +36°C° 0.1 mm 4 mps 722 mmHg 39%
17:00 +35°C° 0.1 mm 4 mps 722 mmHg 41%
18:00 +35°C° 0.1 mm 4 mps 722 mmHg 43%
19:00 +33°C° 0 mm 4 mps 723 mmHg 45%
20:00 +32°C° 0 mm 5 mps 724 mmHg 48%
21:00 +30°C° 0 mm 5 mps 724 mmHg 50%
22:00 +29°C° 0 mm 5 mps 724 mmHg 51%
23:00 +29°C° 0 mm 4 mps 724 mmHg 51%

19 July, Sunday

Time Temperature Precipitation Wind Pressure Humidity
00:00 +28°C° 0 mm 4 mps 725 mmHg 52%
01:00 +28°C° 0 mm 4 mps 725 mmHg 53%
02:00 +27°C° 0 mm 4 mps 725 mmHg 55%
03:00 +27°C° 0 mm 3 mps 725 mmHg 56%
04:00 +27°C° 0 mm 3 mps 725 mmHg 57%
05:00 +27°C° 0 mm 3 mps 725 mmHg 58%
06:00 +27°C° 0 mm 2 mps 725 mmHg 59%
07:00 +28°C° 0 mm 3 mps 725 mmHg 56%
08:00 +29°C° 0 mm 3 mps 725 mmHg 53%
09:00 +30°C° 0 mm 3 mps 725 mmHg 50%
10:00 +31°C° 0 mm 3 mps 725 mmHg 47%
11:00 +33°C° 0 mm 3 mps 724 mmHg 45%
12:00 +34°C° 0 mm 4 mps 724 mmHg 43%
13:00 +35°C° 0 mm 4 mps 724 mmHg 41%
14:00 +35°C° 0 mm 4 mps 723 mmHg 40%
15:00 +36°C° 0 mm 4 mps 723 mmHg 38%
16:00 +35°C° 0 mm 4 mps 723 mmHg 39%
17:00 +35°C° 0 mm 4 mps 722 mmHg 40%
18:00 +34°C° 0 mm 4 mps 722 mmHg 41%
19:00 +33°C° 0 mm 3 mps 722 mmHg 44%
20:00 +31°C° 0 mm 3 mps 723 mmHg 47%
21:00 +29°C° 0 mm 3 mps 723 mmHg 49%
22:00 +29°C° 0 mm 3 mps 723 mmHg 51%
23:00 +28°C° 0 mm 3 mps 722 mmHg 53%
Show more